Change the Weather History Date:

Friday, September 9, 2011

  Actual Average Record
Temperature  
Mean Temperature 66 °F -  
Max Temperature 78 °F 83 °F 98 °F (1945)
Min Temperature 53 °F 61 °F 48 °F (1998)
Growing Degree Days 16 (Base 50)    
Moisture  
Dew Point 55 °F    
Average Humidity 71    
Maximum Humidity 94    
Minimum Humidity 39    
Precipitation  
Precipitation 0.00 in - - ()
Sea Level Pressure  
Sea Level Pressure 29.97 in    
Wind  
Wind Speed 1 mph (WSW)    
Max Wind Speed 6 mph    
Max Gust Speed -    
Visibility 9 miles    
Events      
Averages and records for this station are not official NWS values.
T = Trace of Precipitation, MM = Missing Value Source: NWS Daily Summary

Daily Weather History Graph

Daily Weather History Graph

Search for Another Location

Airport or City:

Trip Planner

Search our weather history database for the weather conditions in past years. The results will help you decide how hot, cold, wet, or windy it might be!

Date:

Astronomy

Sep. 09, 2011 Rise Set
Actual Time 6:23 AM CDT 6:59 PM CDT
Civil Twilight 5:58 AM CDT 7:24 PM CDT
Nautical Twilight 5:28 AM CDT 7:54 PM CDT
Astronomical Twilight 4:58 AM CDT 8:24 PM CDT
Moon 5:21 PM CDT (9/9) 3:48 AM CDT (9/9)
Length of Visible Light 13h 26m
Length of Day
12h 36m
Waxing Gibbous, 93% of the Moon is Illuminated
Sep 9
Waxing Gibbous
Sep 12
Full
Sep 20
Last Quarter
Sep 27
New
Oct 3
First Quarter

Hourly Weather History & Observations

Time (CDT) Temp. Dew Point Humidity Pressure Visibility Wind Dir Wind Speed Gust Speed Precip Events Conditions
12:15 AM 62.6 °F 59.0 °F 88% 29.98 in 10.0 mi Calm Calm - N/A   Overcast
12:35 AM 62.6 °F 59.0 °F 88% 29.97 in 10.0 mi Calm Calm - N/A   Overcast
12:55 AM 62.6 °F 59.0 °F 88% 29.97 in 10.0 mi Calm Calm - N/A   Overcast
1:15 AM 62.6 °F 59.0 °F 88% 29.96 in 10.0 mi Calm Calm - N/A   Overcast
1:35 AM 62.6 °F 59.0 °F 88% 29.96 in 10.0 mi Calm Calm - N/A   Overcast
1:55 AM 62.6 °F 59.0 °F 88% 29.96 in 10.0 mi Calm Calm - N/A   Overcast
2:15 AM 60.8 °F 59.0 °F 94% 29.96 in 10.0 mi Calm Calm - N/A   Overcast
2:35 AM 60.8 °F 57.2 °F 88% 29.95 in 10.0 mi Calm Calm - N/A   Overcast
2:55 AM 60.8 °F 57.2 °F 88% 29.95 in 10.0 mi Calm Calm - N/A   Scattered Clouds
3:15 AM 59.0 °F 55.4 °F 88% 29.95 in 10.0 mi Calm Calm - N/A   Clear
3:35 AM 57.2 °F 55.4 °F 94% 29.95 in 10.0 mi Calm Calm - N/A   Clear
3:55 AM 57.2 °F 55.4 °F 94% 29.95 in 9.0 mi Calm Calm - N/A   Clear
4:15 AM 57.2 °F 55.4 °F 94% 29.95 in 10.0 mi Calm Calm - N/A   Clear
4:35 AM 57.2 °F 55.4 °F 94% 29.96 in 6.0 mi Calm Calm - N/A   Clear
4:55 AM 55.4 °F 53.6 °F 94% 29.96 in 5.0 mi Calm Calm - N/A   Clear
5:15 AM 55.4 °F 53.6 °F 94% 29.95 in 7.0 mi Calm Calm - N/A   Clear
5:35 AM 55.4 °F 53.6 °F 94% 29.96 in 7.0 mi Calm Calm - N/A   Clear
5:55 AM 55.4 °F 53.6 °F 94% 29.97 in 2.0 mi Calm Calm - N/A   Clear
6:15 AM 53.6 °F 51.8 °F 94% 29.96 in 7.0 mi WSW 3.5 mph - N/A   Clear
6:35 AM 53.6 °F 51.8 °F 94% 29.97 in 0.5 mi Calm Calm - N/A   Scattered Clouds
6:55 AM 53.6 °F 51.8 °F 94% 29.97 in 0.2 mi Calm Calm - N/A   Mostly Cloudy
7:15 AM 55.4 °F 53.6 °F 94% 29.98 in 0.2 mi Calm Calm - N/A   Overcast
7:35 AM 57.2 °F 55.4 °F 94% 29.99 in 0.2 mi Calm Calm - N/A   Overcast
7:55 AM 57.2 °F 55.4 °F 94% 29.99 in 1.2 mi Calm Calm - N/A   Overcast
8:35 AM 60.8 °F 57.2 °F 88% 30.00 in 10.0 mi Calm Calm - N/A   Clear
8:55 AM 62.6 °F 59.0 °F 88% 30.01 in 10.0 mi Calm Calm - N/A   Clear
9:15 AM 64.4 °F 57.2 °F 77% 30.01 in 10.0 mi WSW 4.6 mph - N/A   Clear
9:35 AM 68.0 °F 57.2 °F 68% 30.01 in 10.0 mi WSW 4.6 mph - N/A   Clear
9:55 AM 69.8 °F 57.2 °F 64% 30.01 in 10.0 mi West 4.6 mph - N/A   Clear
10:15 AM 71.6 °F 57.2 °F 60% 30.01 in 10.0 mi Calm Calm - N/A   Clear
10:35 AM 71.6 °F 55.4 °F 57% 30.01 in 10.0 mi Calm Calm - N/A   Clear
10:55 AM 73.4 °F 55.4 °F 53% 30.01 in 10.0 mi WSW 5.8 mph - N/A   Clear
11:15 AM 73.4 °F 55.4 °F 53% 30.00 in 10.0 mi WSW 4.6 mph - N/A   Partly Cloudy
11:55 AM 75.2 °F 53.6 °F 47% 30.00 in 10.0 mi Calm Calm - N/A   Mostly Cloudy
12:15 PM 75.2 °F 55.4 °F 50% 30.00 in 10.0 mi SW 4.6 mph - N/A   Scattered Clouds
12:35 PM 75.2 °F 53.6 °F 47% 29.99 in 10.0 mi South 5.8 mph - N/A   Mostly Cloudy
12:55 PM 77.0 °F 53.6 °F 44% 29.98 in 10.0 mi WSW 5.8 mph - N/A   Scattered Clouds
1:15 PM 75.2 °F 53.6 °F 47% 29.98 in 10.0 mi South 3.5 mph - N/A   Clear
1:35 PM 77.0 °F 53.6 °F 44% 29.98 in 10.0 mi WSW 3.5 mph - N/A   Clear
1:55 PM 78.8 °F 53.6 °F 42% 29.97 in 10.0 mi SW 4.6 mph - N/A   Scattered Clouds
2:55 PM 78.8 °F 51.8 °F 39% 29.95 in 10.0 mi Calm Calm - N/A   Scattered Clouds
3:15 PM 78.8 °F 53.6 °F 42% 29.95 in 10.0 mi Calm Calm - N/A   Partly Cloudy
3:35 PM 78.8 °F 53.6 °F 42% 29.94 in 10.0 mi WSW 3.5 mph - N/A   Scattered Clouds
3:55 PM 78.8 °F 51.8 °F 39% 29.94 in 10.0 mi Calm Calm - N/A   Partly Cloudy
4:35 PM 78.8 °F 53.6 °F 42% 29.94 in 10.0 mi Calm Calm - N/A   Partly Cloudy
4:55 PM 78.8 °F 51.8 °F 39% 29.94 in 10.0 mi West 3.5 mph - N/A   Clear
5:15 PM 78.8 °F 51.8 °F 39% 29.94 in 10.0 mi WNW 5.8 mph - N/A   Clear
5:35 PM 78.8 °F 51.8 °F 39% 29.94 in 10.0 mi West 4.6 mph - N/A   Clear
5:55 PM 77.0 °F 51.8 °F 41% 29.95 in 10.0 mi West 4.6 mph - N/A   Clear
6:15 PM 75.2 °F 57.2 °F 53% 29.95 in 10.0 mi Calm Calm - N/A   Clear
6:35 PM 73.4 °F 55.4 °F 53% 29.95 in 10.0 mi NW 3.5 mph - N/A   Clear
6:55 PM 68.0 °F 57.2 °F 68% 29.95 in 10.0 mi Calm Calm - N/A   Clear
7:15 PM 66.2 °F 57.2 °F 73% 29.95 in 10.0 mi Calm Calm - N/A   Clear
7:35 PM 62.6 °F 55.4 °F 77% 29.96 in 10.0 mi West 3.5 mph - N/A   Clear
7:55 PM 62.6 °F 55.4 °F 77% 29.97 in 10.0 mi Calm Calm - N/A   Clear
8:15 PM 62.6 °F 55.4 °F 77% 29.97 in 10.0 mi Calm Calm - N/A   Clear
8:35 PM 62.6 °F 55.4 °F 77% 29.97 in 10.0 mi Calm Calm - N/A   Clear
9:35 PM 60.8 °F 55.4 °F 82% 29.99 in 10.0 mi Calm Calm - N/A   Clear
9:55 PM 59.0 °F 53.6 °F 82% 30.00 in 10.0 mi Calm Calm - N/A   Clear
10:35 PM 59.0 °F 55.4 °F 88% 30.00 in 10.0 mi Calm Calm - N/A   Clear
10:55 PM 57.2 °F 53.6 °F 88% 30.01 in 10.0 mi Calm Calm - N/A   Clear
11:15 PM 57.2 °F 53.6 °F 88% 30.01 in 10.0 mi Calm Calm - N/A   Clear
11:35 PM 57.2 °F 53.6 °F 88% 30.01 in 10.0 mi Calm Calm - N/A   Clear
11:55 PM 57.2 °F 53.6 °F 88% 30.01 in 10.0 mi Calm Calm - N/A   Clear